Temp
17 16 16 15 15 15 14 14 14 14 14 13 13 13 13 13 13 12 12 12 12 12 11 11 11 11 10 10 10 10 10 9 9 9 9 9 10 10 10 10 10 11 11 12 13 13 14 15 16 17 17 17 17 16 16 16 16 16 16 16 16 16 16 16 16 16 17 17 17 17 17 16 16 16 16 16 15 14 14 15 15 15 15 14 14
17 16 16 15 15 15 14 14 14 14 14 13 13 13 13 13 12 12 12 12 11 11 11 11 11 10 10 10 10 9 9 9 9 9 9 9 9 9 9 9 9 10 10 11 11 12 13 13 14 15 16 17 17 17 17 17 17 16 16 16 16 16 16 16 16 16 16 16 16 17 17 16 16 15 15 15 14 14 14 14 14 14 14 14 14
17 16 16 15 15 15 14 14 14 14 13 13 13 13 12 12 12 12 12 11 11 11 11 11 11 10 10 10 10 10 10 9 9 9 8 8 8 8 8 8 9 9 9 10 10 11 12 12 13 14 15 16 17 17 17 17 17 17 17 16 16 16 16 16 16 16 16 16 16 17 17 16 15 15 15 15 14 14 13 13 13 13 13 13 13
17 16 16 15 15 15 14 14 14 13 13 13 13 13 12 12 12 12 12 11 11 11 11 11 11 10 10 10 10 10 10 9 9 8 8 8 8 7 8 8 8 8 8 9 9 10 10 11 12 13 14 15 16 17 17 17 17 17 17 17 16 16 16 16 16 16 16 16 16 17 17 16 15 15 14 14 14 13 13 12 12 12 12 12 12
17 17 16 16 15 15 14 14 14 13 13 13 13 13 12 12 12 12 12 11 11 11 11 11 10 10 10 10 10 9 9 9 8 8 8 7 7 7 7 7 7 8 8 8 8 9 9 10 11 12 13 14 15 16 17 17 18 17 17 17 16 16 16 16 16 16 16 16 16 16 17 16 15 15 14 13 13 12 12 11 11 11 11 11 11
17 17 16 16 15 15 14 14 14 13 13 13 13 13 12 12 12 12 11 11 11 11 10 10 10 10 10 10 9 9 8 8 8 7 7 7 7 7 7 7 7 7 7 8 8 8 8 9 10 11 12 13 14 15 16 16 17 17 17 17 16 16 15 16 16 15 16 16 16 15 16 16 15 15 14 13 13 11 11 11 10 10 10 10 10
17 17 17 16 15 15 14 14 14 13 13 13 13 12 12 12 12 12 11 11 11 10 10 10 10 9 9 9 8 8 8 7 7 7 7 7 7 7 7 7 7 7 7 7 7 8 8 8 9 10 11 12 13 14 15 16 16 17 17 17 16 15 14 14 15 14 15 16 16 15 15 15 15 14 13 13 13 12 11 10 9 9 9 10 10
17 17 17 16 15 15 14 14 14 13 13 13 13 12 12 12 12 11 11 10 10 10 9 9 9 9 9 8 8 8 8 7 7 7 7 7 7 7 7 7 7 7 7 7 7 7 8 8 9 9 10 11 12 13 14 15 16 16 17 17 16 16 15 14 14 14 14 15 15 15 14 15 15 14 12 12 12 12 11 10 9 8 8 9 9
17 17 17 16 15 15 14 14 14 13 13 13 12 12 12 12 11 11 10 10 9 9 9 9 9 9 8 8 8 8 8 7 7 7 7 7 7 7 7 7 7 7 7 7 7 8 8 8 9 9 9 10 11 12 13 14 15 15 16 16 16 16 15 15 14 14 14 14 14 14 14 14 14 13 12 11 12 12 11 10 9 9 8 8 8
17 17 16 16 15 15 14 14 14 13 13 12 12 12 12 11 11 10 10 10 9 9 9 9 8 8 8 8 8 8 7 7 7 7 7 7 7 7 7 7 7 7 7 7 7 8 8 8 9 9 9 10 10 11 12 13 14 15 15 16 16 15 15 15 15 14 14 13 13 13 13 13 14 13 12 12 12 12 11 10 9 8 8 7 7
17 17 16 15 15 15 14 14 13 13 12 12 12 12 12 11 11 10 10 9 9 9 9 9 8 8 7 7 7 7 7 7 7 7 7 7 7 7 7 6 6 6 6 7 7 7 7 8 9 9 9 9 10 10 11 11 13 13 14 15 15 15 15 14 15 15 14 14 14 13 13 13 13 14 13 12 12 12 11 10 9 8 8 8 7
17 16 16 15 15 14 14 14 13 13 13 12 12 12 11 11 10 10 10 10 9 9 9 8 8 8 7 7 7 7 7 7 7 7 7 7 7 6 6 6 6 6 6 7 7 7 7 7 8 9 9 9 10 10 11 11 12 13 13 14 15 15 15 15 14 14 14 14 14 14 13 13 13 13 13 13 13 12 11 10 10 9 8 8 8
16 16 16 15 15 14 14 13 13 13 13 12 12 12 11 11 10 10 10 10 9 9 8 8 7 7 7 7 6 6 6 6 6 6 6 6 6 6 6 5 5 6 6 6 6 7 7 7 7 8 8 9 10 10 11 11 12 12 13 14 14 15 15 15 15 14 14 14 14 14 14 13 13 13 13 13 13 12 11 10 10 9 9 9 9
16 16 16 15 15 14 14 13 13 13 12 12 12 11 11 10 10 10 10 10 9 8 8 7 7 7 7 6 6 6 6 6 5 5 5 5 5 5 5 5 5 5 5 5 6 6 6 7 7 7 7 8 9 10 11 11 12 13 13 14 14 14 15 15 15 15 15 14 14 14 14 14 13 14 14 14 13 12 11 11 10 10 10 10 10
16 16 15 15 15 14 14 13 13 13 12 12 11 11 11 10 10 10 10 9 8 8 7 7 7 7 7 6 6 6 6 5 5 5 5 5 5 5 4 4 4 4 4 5 5 5 6 6 6 7 7 7 8 9 10 11 12 13 14 14 15 15 15 15 15 15 15 15 14 14 14 14 14 14 14 14 14 13 12 12 11 11 10 10 10
16 16 15 15 14 14 13 13 13 12 12 12 11 11 10 10 10 10 10 9 8 8 7 7 7 7 7 6 6 6 6 5 5 5 5 4 4 4 4 4 4 4 4 4 4 5 5 5 6 6 6 7 7 8 8 9 10 11 12 13 14 15 15 15 16 16 16 15 15 15 14 14 14 14 14 14 14 13 12 12 11 11 10 10 9
16 15 15 14 14 14 13 13 13 12 12 12 11 11 11 10 10 10 9 8 8 7 7 7 7 7 6 6 6 6 5 5 5 5 4 4 4 4 3 3 3 3 4 4 4 5 5 5 5 5 6 6 6 7 7 8 8 9 10 11 13 14 16 16 16 16 16 16 16 16 15 15 14 13 13 14 13 12 12 11 11 11 10 9 8
16 15 15 14 14 14 13 13 13 12 12 11 11 11 11 10 10 9 9 8 7 7 7 7 6 6 6 6 6 5 5 5 4 4 4 4 4 4 3 3 3 3 3 3 4 4 4 4 5 5 5 6 6 6 7 7 8 8 9 10 11 13 15 16 16 15 16 16 16 16 15 15 14 14 14 14 13 13 12 12 11 11 10 9 8
16 16 15 14 14 14 13 13 12 12 11 11 11 10 10 10 9 9 8 7 7 7 6 6 6 6 6 5 5 5 4 4 4 4 4 4 4 3 3 3 3 3 3 3 3 4 4 4 4 5 5 5 5 6 6 7 7 7 8 9 10 12 13 15 15 15 15 15 14 14 14 14 14 14 13 13 13 13 13 12 12 11 11 10 8
16 15 14 14 13 13 13 12 12 11 11 11 10 10 10 9 9 8 7 7 6 6 6 6 5 5 5 5 5 4 4 4 4 4 4 3 3 3 3 3 2 2 3 3 3 3 4 4 4 4 4 5 5 5 5 6 6 7 7 7 9 11 12 13 14 14 13 13 13 13 13 13 13 13 13 12 12 12 12 12 12 12 11 10 8
15 14 13 13 13 13 13 12 11 11 11 10 10 10 9 9 9 8 7 6 6 6 6 5 5 5 5 4 4 4 4 4 4 3 3 3 2 2 2 2 2 2 2 2 3 3 3 4 4 4 4 5 5 5 5 5 6 6 6 6 7 9 10 11 12 12 12 12 12 12 13 13 13 12 12 12 11 11 11 11 12 12 12 11 9
14 13 13 13 13 13 12 11 11 11 10 10 10 10 9 9 8 8 7 6 6 6 5 5 4 4 4 4 4 3 3 3 3 3 2 2 2 2 2 2 2 2 2 2 2 3 3 3 4 4 4 5 5 5 5 5 6 6 6 6 6 7 8 9 11 11 11 11 11 11 11 11 11 11 10 10 10 10 10 11 11 11 11 11 11
14 14 13 13 13 12 12 11 11 11 11 10 10 10 10 9 8 7 7 6 5 5 5 4 4 4 3 3 3 3 3 3 2 2 2 2 2 2 2 1 1 1 1 2 2 2 3 3 4 4 4 5 5 5 6 6 6 6 6 6 7 7 7 8 9 10 10 10 10 9 9 9 9 9 9 9 9 9 10 10 10 10 10 10 10
14 13 13 13 12 12 12 12 12 11 11 11 10 10 10 9 8 7 7 6 5 5 4 4 3 3 3 2 2 2 2 2 2 1 1 1 1 1 1 1 1 1 1 1 1 2 2 3 3 4 5 5 5 6 6 6 6 6 7 7 7 7 7 7 9 9 9 9 8 8 8 8 8 8 8 8 8 8 9 9 9 9 9 9 9
14 13 13 13 13 13 12 12 12 11 11 11 10 10 10 9 8 7 6 6 5 5 4 4 3 2 2 2 1 1 1 1 1 1 1 1 1 1 1 1 1 1 1 1 1 1 2 2 3 4 5 5 5 6 6 6 7 7 7 7 7 7 7 8 8 8 7 7 7 7 7 7 7 7 7 7 7 7 7 7 7 7 8 8 8
13 13 13 13 13 13 12 12 11 11 11 11 11 11 10 9 8 7 6 6 5 5 4 3 2 2 1 1 1 1 0 0 0 0 0 0 0 0 0 -0 -0 -0 0 0 1 1 2 2 3 3 4 5 5 5 5 6 6 7 7 7 7 7 7 8 8 7 7 6 6 6 6 6 6 6 6 6 6 6 6 6 6 6 7 7 7
13 13 13 13 13 13 12 12 12 12 12 12 11 11 10 9 8 7 6 5 5 4 4 3 2 1 1 0 0 -0 -0 -0 -0 -0 -0 -0 -1 -1 -1 -1 -1 -1 -0 0 1 1 2 3 3 3 4 5 5 5 5 5 6 7 7 7 7 7 8 8 8 8 7 6 5 5 5 5 5 5 5 5 5 5 5 6 6 5 6 6 5
13 13 13 13 13 13 12 12 12 12 12 12 11 11 10 9 9 8 6 5 5 4 3 2 2 1 0 -0 -0 -1 -1 -1 -1 -1 -1 -1 -1 -1 -1 -1 -1 -1 -0 0 1 2 3 3 3 3 3 4 4 5 5 5 6 6 6 6 7 7 8 8 8 7 6 5 5 4 4 4 4 4 3 4 3 3 4 5 5 4 4 5 4
13 13 13 13 13 12 12 12 12 12 12 12 11 11 10 10 9 7 6 5 5 4 3 2 2 1 0 -0 -1 -1 -1 -1 -1 -1 -1 -1 -1 -1 -1 -1 -0 0 1 1 2 2 3 3 3 3 3 4 4 4 4 5 5 6 6 6 7 7 7 7 6 5 5 5 4 3 3 3 2 2 2 2 2 2 3 4 4 3 4 4 3
13 13 13 13 12 12 12 12 12 12 12 12 11 11 10 9 8 7 6 6 5 5 4 3 2 1 0 -0 -1 -1 -1 -1 -1 -1 -1 -1 -1 -1 -1 -0 0 1 2 3 2 2 3 3 3 3 4 4 4 4 4 4 4 5 6 6 6 6 6 6 5 4 4 4 3 3 2 2 1 1 1 1 1 1 2 3 3 3 3 3 2
13 13 13 13 12 12 12 12 12 12 12 11 11 11 10 8 7 7 6 6 5 5 4 3 2 1 0 0 -0 -1 -1 -1 -1 -1 -1 -1 -1 -0 -0 0 1 1 2 3 3 3 3 3 3 3 4 4 4 4 3 3 4 4 4 4 5 5 5 4 4 3 3 3 2 2 2 1 1 1 1 1 1 1 1 2 2 2 2 2 2
13 13 13 13 12 12 12 12 12 12 12 11 11 10 10 9 8 7 6 6 6 5 4 3 2 1 1 0 -0 -1 -1 -1 -1 -1 -1 -1 -1 -0 -0 0 1 1 2 3 3 3 3 3 3 3 4 4 4 3 3 3 3 3 3 3 3 3 3 3 3 3 3 2 2 1 1 1 1 1 1 1 1 1 1 2 2 2 2 2 2
13 13 12 12 12 12 12 12 12 12 12 11 10 10 10 9 9 8 7 6 6 5 4 3 2 2 1 0 -0 -1 -1 -0 -1 -1 -1 -1 -1 -0 0 0 1 2 2 3 3 3 3 3 3 3 3 3 3 3 3 3 3 3 3 2 2 2 2 2 3 3 2 2 2 1 1 1 1 1 1 1 1 1 1 2 2 2 2 3 3
12 12 12 12 12 12 12 12 12 12 11 10 10 10 10 9 9 9 8 7 6 5 5 3 3 2 1 0 -0 -0 -0 -0 -1 -1 -1 -1 -1 -0 0 1 1 2 2 2 2 2 3 3 2 2 3 3 2 2 2 2 2 2 2 2 1 1 1 1 1 1 1 1 1 1 1 1 1 1 1 1 1 2 2 2 3 3 3 4 4
12 12 12 12 12 12 12 12 11 11 10 10 10 9 9 9 9 9 8 7 6 5 5 4 3 2 1 0 -0 -0 -0 -0 -1 -1 -1 -1 -1 -1 -0 0 0 1 1 1 1 2 2 2 2 2 2 2 2 2 2 2 2 2 1 1 1 0 0 0 0 1 1 1 1 1 1 1 1 1 1 2 2 2 3 3 4 4 4 4 5
12 12 12 12 11 11 11 11 11 10 10 10 10 9 10 9 9 9 8 7 6 5 5 4 3 2 1 0 -0 -0 -0 -0 -1 -1 -1 -1 -1 -1 -1 -1 -1 -1 -1 -0 0 1 1 1 1 2 2 2 2 1 1 1 1 1 0 0 0 0 0 0 0 0 1 1 1 1 1 1 1 2 2 2 3 3 3 4 4 4 5 5 5
12 12 12 11 11 11 10 10 10 10 10 10 10 10 10 9 9 9 8 8 7 6 5 4 3 2 1 0 -0 -0 -0 -1 -1 -1 -1 -1 -1 -1 -2 -1 -1 -1 -1 -1 -1 -0 -0 0 0 1 1 1 1 1 1 1 0 -0 -0 -0 -0 0 0 0 0 0 0 1 1 1 1 1 2 2 2 3 3 3 4 4 4 4 5 5 5
12 12 12 11 11 10 10 10 10 10 10 10 10 10 9 9 9 9 8 8 7 6 5 4 3 2 1 0 -0 -1 -1 -1 -1 -1 -2 -2 -2 -2 -2 -2 -2 -2 -2 -2 -2 -1 -1 -1 -0 -0 -0 -0 0 -0 -0 -0 -0 -0 -0 -0 -0 -0 -0 -0 0 0 0 0 1 1 1 2 2 2 3 3 3 4 4 4 4 4 5 5 5
11 11 11 10 10 10 10 10 10 10 10 10 10 10 9 9 9 9 8 8 8 7 6 5 3 2 1 0 -0 -1 -1 -1 -1 -1 -2 -2 -2 -2 -2 -2 -2 -2 -2 -2 -2 -2 -2 -1 -1 -1 -1 -1 -1 -1 -1 -1 -1 -1 -0 -0 -0 -0 -0 -0 0 0 0 1 1 1 2 2 2 3 3 3 3 4 4 4 5 5 5 5 5
11 11 10 10 10 10 10 10 9 9 9 10 10 9 9 9 9 9 8 8 8 7 7 6 4 3 2 1 0 -1 -1 -1 -2 -2 -2 -2 -2 -2 -3 -3 -2 -2 -2 -2 -2 -2 -2 -2 -2 -2 -2 -1 -1 -1 -1 -1 -1 -1 -1 -1 -0 -0 -0 0 0 1 1 1 1 2 2 2 3 3 3 3 4 4 4 4 5 5 5 4 4
11 11 10 10 10 10 10 9 9 8 9 9 9 9 9 9 9 9 9 8 8 7 7 6 5 4 3 2 1 0 -1 -1 -2 -2 -2 -2 -2 -3 -3 -3 -3 -3 -3 -3 -3 -3 -3 -2 -2 -2 -2 -2 -2 -2 -2 -1 -1 -1 -1 -1 -1 -0 -0 0 1 1 1 1 1 1 2 2 2 3 3 3 3 3 4 4 4 4 4 4 4
10 10 10 10 10 10 10 9 9 8 9 9 9 9 9 9 9 9 9 9 8 8 7 6 6 5 4 3 2 1 -0 -1 -2 -2 -2 -2 -2 -3 -3 -3 -3 -3 -3 -3 -3 -3 -3 -3 -3 -3 -2 -2 -2 -2 -2 -2 -2 -2 -2 -1 -1 -1 -0 -0 0 0 1 1 1 1 1 1 1 2 2 2 2 3 3 3 3 3 4 4 4
10 10 10 10 10 10 10 9 9 9 9 9 9 9 9 10 10 9 9 9 9 8 7 7 6 5 4 3 2 1 0 -1 -2 -2 -2 -2 -2 -3 -3 -3 -3 -3 -3 -3 -3 -3 -3 -3 -3 -3 -3 -3 -3 -2 -2 -2 -2 -2 -2 -2 -1 -1 -1 -1 -1 -0 0 0 0 0 0 0 0 1 1 1 2 2 2 3 3 3 3 3 3
10 10 10 10 10 10 9 9 9 9 9 9 10 10 10 10 10 10 10 9 9 8 7 7 6 5 4 4 3 2 0 -1 -1 -2 -2 -2 -2 -3 -3 -3 -3 -3 -3 -3 -3 -3 -3 -3 -3 -3 -3 -3 -3 -3 -2 -2 -2 -2 -2 -2 -2 -2 -1 -1 -1 -0 -0 0 -0 -0 -0 -0 -0 0 0 1 1 2 2 3 3 3 3 3 4
11 11 11 10 10 10 9 9 9 9 9 10 10 10 10 10 10 10 10 10 9 8 7 7 6 6 5 4 3 2 1 0 -1 -1 -2 -2 -2 -2 -3 -3 -3 -3 -3 -3 -3 -3 -3 -3 -3 -3 -3 -3 -3 -3 -3 -2 -2 -2 -2 -2 -2 -2 -2 -1 -1 -0 -0 0 0 -0 -0 -0 -0 0 1 1 2 2 2 3 3 3 3 3 3
11 11 11 11 11 10 10 10 10 10 10 10 10 10 11 10 10 10 10 10 10 9 8 7 6 6 5 4 4 3 2 1 0 -1 -1 -2 -2 -2 -2 -3 -3 -3 -3 -3 -3 -3 -3 -3 -3 -3 -3 -3 -3 -3 -3 -3 -3 -2 -2 -2 -2 -2 -2 -1 -1 -0 -0 -0 -0 -0 -0 -0 -0 0 1 1 2 2 2 2 3 3 3 3 3
10 10 10 10 10 10 10 10 10 10 10 10 10 10 10 10 10 10 9 9 9 9 8 7 7 6 5 5 4 3 3 2 1 0 -1 -1 -1 -2 -2 -2 -3 -3 -3 -3 -3 -3 -3 -3 -3 -3 -3 -3 -3 -3 -3 -3 -3 -3 -3 -2 -2 -2 -2 -1 -1 -1 -1 -1 -0 -0 -0 -0 -0 0 1 1 1 2 2 2 2 2 3 3 3
10 10 9 9 9 9 10 10 10 9 9 9 9 9 8 8 8 8 8 8 8 8 8 8 7 6 6 5 5 4 3 3 2 1 0 -0 -1 -1 -1 -2 -2 -2 -3 -3 -3 -3 -3 -3 -3 -3 -3 -3 -3 -3 -3 -3 -3 -3 -3 -2 -2 -2 -2 -1 -1 -1 -1 -1 -0 -0 -0 -0 0 0 1 1 1 1 2 2 2 2 3 3 3
9 9 9 8 8 8 9 9 9 8 7 7 7 6 6 6 6 6 6 6 7 7 8 8 8 7 6 6 5 5 4 3 3 2 1 1 0 -0 -1 -1 -1 -2 -2 -2 -2 -2 -2 -3 -3 -3 -2 -2 -2 -2 -2 -2 -2 -2 -2 -2 -2 -2 -2 -2 -1 -1 -1 -1 -1 -0 -0 -0 0 0 0 1 1 1 1 2 2 2 2 2 3
8 8 8 8 7 7 7 7 7 7 6 6 5 5 4 4 4 4 4 4 5 5 6 7 7 7 7 7 6 5 5 4 3 3 2 2 1 1 0 -0 -1 -1 -1 -2 -2 -2 -2 -2 -2 -2 -2 -2 -2 -2 -2 -2 -2 -2 -2 -2 -1 -1 -1 -1 -1 -1 -1 -1 -1 -1 -1 -1 -0 -0 0 1 1 1 1 1 1 2 2 2 2
7 7 7 7 6 6 6 6 6 5 5 5 4 4 3 3 2 2 2 2 2 3 4 5 5 6 6 6 6 5 5 4 4 3 3 2 2 2 1 1 0 -0 -1 -1 -1 -1 -2 -2 -2 -2 -2 -2 -2 -1 -1 -1 -1 -1 -1 -1 -1 -1 -1 -1 -1 -1 -1 -2 -1 -1 -1 -1 -0 0 0 1 1 1 1 1 1 1 2 2 2
Height
776 779 781 783 786 787 789 791 793 794 795 796 797 798 798 799 800 800 800 801 801 801 801 801 801 801 800 800 799 799 799 799 799 799 799 798 797 796 795 795 794 793 792 791 790 788 787 786 785 784 784 783 783 783 784 786 787 788 789 790 791 792 793 793 791 790 792 793 794 797 799 803 804 803 803 805 806 807 809 811 812 813 814 816 820
773 776 778 781 783 785 787 789 791 792 793 794 795 796 797 798 798 799 799 799 799 800 800 799 799 799 799 798 798 797 797 796 797 797 797 796 796 795 794 794 793 791 790 789 788 787 785 784 783 782 781 780 780 780 781 782 783 784 785 786 787 788 789 789 789 789 790 791 792 794 795 798 800 800 801 803 803 805 807 810 812 812 813 815 817
770 773 776 778 781 783 785 787 789 790 791 793 794 795 795 796 797 797 797 798 798 798 798 798 798 797 797 797 796 795 795 794 794 794 795 794 794 793 792 792 791 790 789 787 786 785 784 782 781 780 779 778 777 777 777 778 779 779 780 781 782 783 784 785 785 786 787 789 790 791 791 793 795 796 798 800 801 803 806 808 810 811 812 813 815
768 771 773 776 779 781 783 785 787 788 789 791 792 793 794 794 795 795 796 796 796 797 797 796 796 795 795 794 794 793 793 792 792 792 792 792 791 791 790 790 789 788 787 785 784 784 782 780 779 778 777 776 774 774 774 774 775 775 776 777 778 779 780 780 781 782 783 785 786 787 788 789 790 792 795 797 799 801 803 806 808 809 811 812 814
765 768 771 774 776 779 781 783 785 786 787 789 790 791 792 792 793 794 794 794 794 795 795 794 794 794 793 792 791 791 791 790 790 789 789 789 789 788 788 787 786 785 784 783 782 781 780 778 777 776 775 773 772 772 772 772 771 771 772 773 773 774 775 776 777 778 779 781 782 784 785 786 788 790 791 793 796 799 802 805 807 807 809 812 813
762 765 768 771 774 777 779 781 783 784 786 787 788 789 790 791 792 792 792 793 792 792 792 792 792 792 791 790 789 789 789 789 788 787 787 786 786 785 785 784 784 783 782 781 780 778 777 776 774 773 772 771 770 769 769 769 768 768 767 768 769 770 771 772 772 774 775 777 778 780 781 783 785 787 788 790 791 794 798 803 806 805 806 809 811
760 763 765 769 772 775 777 779 781 782 784 785 786 787 788 789 790 790 790 790 790 790 790 790 790 789 788 788 787 787 787 786 786 785 784 783 783 782 782 781 781 780 779 778 777 776 774 773 771 770 769 768 767 767 767 766 766 765 764 764 765 767 768 769 769 771 772 773 774 776 777 779 781 782 785 787 789 791 794 797 801 803 803 805 808
757 760 763 766 770 772 775 777 779 781 782 783 785 786 787 787 788 788 788 788 788 788 788 788 787 786 786 785 785 785 784 784 783 782 781 781 780 779 779 778 777 776 776 774 773 772 771 770 768 767 765 765 764 764 764 764 763 762 762 762 762 762 763 765 767 768 769 770 771 772 773 776 778 780 782 784 786 789 790 792 795 798 800 802 805
755 758 761 764 767 770 773 775 777 779 780 782 783 784 785 786 786 786 786 786 786 786 786 785 785 784 783 783 782 782 781 781 780 779 779 778 778 777 776 775 774 773 772 771 770 768 767 766 764 763 762 761 760 760 759 760 760 759 759 759 760 759 759 760 762 763 765 767 768 769 770 772 774 776 778 779 780 783 787 790 793 794 797 800 803
753 756 759 762 766 769 772 774 776 778 779 780 782 782 783 784 784 784 784 784 784 784 784 783 782 782 781 780 780 779 778 778 777 777 776 776 775 774 773 772 772 770 769 767 766 764 763 762 760 758 758 757 757 756 755 755 754 754 755 756 757 757 757 757 758 758 761 762 763 765 766 767 768 770 772 774 777 780 783 786 789 792 796 799 802
752 755 757 761 765 768 770 773 774 776 778 779 780 781 781 782 782 782 782 782 782 782 781 781 780 780 779 778 777 776 775 775 774 774 774 773 772 771 769 768 767 767 765 764 762 761 759 758 756 755 753 752 752 752 751 750 749 749 750 751 752 753 754 755 755 756 757 758 758 760 762 762 762 764 768 771 774 777 779 781 784 788 791 793 796
751 754 756 760 764 766 769 771 773 775 776 777 778 779 779 780 780 780 780 780 780 779 779 779 778 778 777 776 775 774 773 772 772 771 770 770 769 767 765 764 762 761 760 759 758 757 755 754 752 751 749 748 748 747 746 746 745 745 746 746 747 748 748 750 751 753 754 755 754 754 755 758 760 760 762 766 770 772 776 778 779 781 783 785 787
751 753 756 759 762 765 768 770 772 773 775 776 777 777 778 778 778 778 778 777 777 777 777 777 777 776 775 774 773 771 770 770 769 768 767 766 765 764 762 760 758 756 755 754 753 752 751 750 748 747 746 745 744 743 742 742 742 742 742 742 742 742 743 744 745 747 749 751 752 750 750 752 755 756 757 760 764 768 771 773 774 776 778 779 780
750 752 755 758 761 764 767 769 771 772 773 775 775 775 776 776 776 776 775 775 774 774 775 775 774 774 772 771 770 768 767 767 765 765 764 763 762 761 758 756 754 752 751 750 748 747 746 746 744 742 742 741 740 739 739 739 739 739 738 737 737 737 738 738 739 740 743 746 747 747 747 747 749 752 755 756 757 758 761 764 766 769 772 775 777
749 752 755 757 761 764 766 768 770 771 772 773 774 774 774 774 774 774 773 772 772 772 772 772 772 771 770 768 766 765 764 763 762 761 760 759 758 756 754 752 749 747 745 744 743 742 741 741 739 737 737 737 736 736 735 735 735 735 733 732 731 732 732 732 733 734 736 738 740 742 744 745 745 747 750 751 751 751 753 756 760 764 769 775 778
749 751 754 757 761 764 766 768 769 770 771 772 772 773 773 773 773 772 771 770 770 770 770 770 769 768 767 765 763 761 760 759 758 757 756 755 753 751 750 748 745 742 740 738 738 736 736 735 734 732 732 731 731 732 732 731 731 730 729 728 727 726 726 726 727 728 730 732 734 736 739 741 742 743 745 747 748 751 755 758 762 766 770 774 777
748 751 753 757 760 763 765 768 768 769 770 770 771 771 771 771 771 770 769 768 768 768 768 768 767 765 763 762 760 758 756 755 755 753 752 751 749 747 744 742 740 737 735 733 732 731 730 729 728 728 727 726 727 729 729 729 727 726 725 725 724 722 720 720 721 722 723 725 727 729 732 735 738 741 744 746 747 749 753 756 758 761 765 769 772
746 749 752 755 759 762 764 766 767 768 768 769 770 770 770 770 770 769 768 767 767 767 767 765 764 763 761 759 757 755 753 752 751 749 748 747 745 742 739 737 734 732 730 729 727 726 724 724 723 723 721 721 723 725 726 726 724 723 723 722 721 719 717 715 715 716 717 720 722 724 726 729 733 736 739 742 743 745 747 749 751 754 758 761 765
745 747 749 753 757 760 763 765 766 766 767 768 768 769 769 769 769 768 767 767 767 766 765 764 762 760 759 757 754 752 750 748 747 745 743 742 740 737 735 732 728 726 725 724 722 720 719 718 718 717 716 716 719 720 722 723 721 719 720 720 718 716 715 712 711 712 713 715 717 719 721 724 727 731 734 737 737 739 741 742 744 745 749 754 759
744 746 749 752 756 760 762 764 764 765 766 766 767 768 768 768 767 766 766 766 765 765 764 762 760 758 756 754 751 750 747 744 743 741 739 737 736 733 730 726 723 721 720 718 716 714 713 712 711 711 711 712 713 715 716 718 716 715 717 716 714 714 714 711 709 709 710 712 713 715 717 719 722 726 731 734 735 737 740 742 742 741 742 747 752
744 747 750 753 757 760 761 762 763 764 765 765 766 766 766 766 766 765 764 764 764 763 762 760 758 755 753 751 749 746 744 741 738 737 735 732 731 728 725 721 719 717 714 713 711 709 707 706 705 705 706 706 707 709 710 711 711 712 711 710 710 712 713 711 708 707 708 710 711 713 714 716 719 722 726 730 733 737 740 742 743 743 742 742 747
745 749 751 753 757 759 760 761 762 762 763 763 764 764 764 764 763 763 763 763 762 762 760 758 756 753 751 749 746 743 741 738 735 732 730 727 725 723 720 716 714 712 709 707 705 703 702 701 700 700 701 700 701 702 703 703 705 705 703 703 706 709 712 712 709 706 706 708 709 711 712 713 716 719 722 726 730 734 738 739 741 743 743 742 744
747 749 752 754 757 758 759 760 760 761 761 761 762 762 761 761 761 761 762 762 761 760 759 757 755 752 748 746 744 740 737 734 731 728 726 722 720 718 715 712 710 708 705 702 700 698 697 696 695 695 695 695 695 696 696 696 697 696 696 698 702 705 709 711 709 705 705 706 708 709 711 711 713 716 719 723 727 732 735 737 738 740 742 743 745
748 750 752 755 756 757 758 759 759 760 760 760 760 759 759 759 760 760 760 760 760 759 757 755 752 750 746 743 740 737 734 731 727 724 721 718 715 712 709 707 704 703 700 697 695 693 692 690 690 689 689 689 689 689 689 689 689 689 691 694 697 700 705 708 706 703 703 704 706 708 710 711 712 714 717 720 724 729 733 735 737 739 741 743 746
749 751 752 753 754 756 757 758 759 759 758 758 757 757 757 757 757 758 758 758 758 757 755 753 750 747 744 740 737 734 730 727 723 720 716 713 709 706 704 701 698 696 693 690 688 686 685 684 684 684 683 683 682 682 683 683 683 684 686 689 691 695 699 702 702 700 699 701 703 705 708 710 713 715 717 720 723 727 730 733 736 738 741 744 747
749 750 751 752 753 755 756 757 758 757 756 755 755 755 755 755 755 756 756 756 756 755 753 751 748 745 742 738 735 731 727 723 719 715 712 708 704 701 698 694 691 689 685 682 680 679 678 677 677 677 678 677 677 678 678 678 678 679 681 684 686 689 692 695 697 696 696 698 700 703 706 709 712 715 718 721 724 726 728 731 734 738 741 743 747
748 749 750 751 753 754 755 756 755 754 753 753 753 753 753 753 753 754 754 754 754 753 751 749 746 743 740 736 732 728 724 720 715 711 707 703 699 695 692 687 684 680 677 674 672 671 670 668 669 670 671 672 673 674 673 673 674 674 675 678 681 683 686 689 691 691 692 695 698 701 705 708 711 715 718 720 723 725 728 729 732 737 741 744 747
747 749 750 751 752 753 754 754 753 752 752 752 751 751 751 750 751 751 751 752 751 750 749 747 744 742 738 734 730 725 720 717 713 708 703 699 694 689 685 680 676 672 669 667 665 664 662 660 661 664 666 668 669 670 669 669 668 668 669 672 676 679 681 685 688 688 689 692 695 699 703 707 710 713 716 719 722 724 727 729 732 736 740 743 746
747 748 749 751 752 753 753 753 752 751 751 750 750 750 749 749 749 749 749 750 749 749 747 745 743 740 737 733 728 723 717 713 709 705 700 694 689 684 679 674 670 665 662 660 659 657 656 654 656 658 661 664 666 666 666 665 663 663 665 668 671 674 677 680 684 686 687 690 692 696 700 705 709 713 716 719 722 725 728 729 732 735 739 743 746
747 748 749 750 752 753 752 751 750 750 750 749 749 749 748 748 748 748 748 748 748 747 746 744 741 739 735 731 727 722 717 710 705 701 695 690 685 680 675 671 665 660 656 653 653 652 651 650 652 654 657 660 662 663 663 662 660 660 663 665 667 671 674 678 680 683 686 688 690 694 698 703 707 712 715 718 722 726 729 731 732 734 737 741 747
746 746 747 749 750 751 750 749 749 749 749 749 749 749 748 747 747 747 747 746 746 745 744 742 740 737 734 729 725 720 715 709 703 698 692 686 681 676 672 668 663 657 652 649 647 647 647 648 650 652 654 657 658 659 661 661 660 659 661 664 666 669 672 675 678 681 684 687 690 694 698 701 706 711 714 717 720 724 729 732 733 734 736 741 747
745 746 747 749 749 749 748 748 748 748 748 748 749 749 748 747 746 746 746 745 744 744 743 741 738 736 732 728 723 718 712 707 702 697 691 685 679 674 670 666 662 656 651 648 647 646 646 647 649 650 652 654 655 656 658 659 659 659 660 663 666 668 670 673 676 679 682 686 690 694 698 702 706 711 714 716 718 723 728 731 732 734 740 745 750
745 747 748 749 749 748 748 748 748 747 747 748 748 748 748 747 746 746 745 744 743 743 742 740 737 734 730 727 722 717 711 706 701 695 689 683 678 673 669 666 662 657 653 650 648 648 648 649 650 650 651 652 653 654 656 657 658 659 660 662 665 668 670 673 675 679 682 685 689 693 698 702 706 710 714 716 718 722 726 729 732 737 743 748 752
747 748 749 749 749 748 747 748 748 747 747 748 748 748 747 746 745 745 744 743 742 741 740 739 736 732 729 725 720 715 710 705 700 694 689 683 677 672 669 665 661 658 655 652 651 650 649 650 651 652 653 653 654 655 656 657 658 659 660 662 665 668 671 674 676 679 682 685 689 693 697 701 705 709 713 717 720 723 725 728 733 738 743 747 750
747 748 748 748 748 748 748 748 749 748 748 748 748 747 746 745 745 744 743 741 740 739 738 736 734 731 728 724 719 714 709 704 699 694 689 683 678 673 669 665 662 659 657 655 653 652 652 652 653 654 655 656 656 657 658 659 659 660 661 663 665 668 671 675 678 680 682 686 689 694 698 702 706 709 712 715 719 722 725 729 734 738 742 745 746
746 747 747 748 748 748 749 749 749 749 748 748 747 746 745 744 744 743 742 741 739 738 737 735 732 730 727 724 719 714 709 704 699 694 690 685 680 675 671 669 666 663 660 658 657 655 655 655 655 656 657 658 658 659 660 661 662 662 663 664 666 668 671 675 678 681 684 687 691 695 699 703 708 711 714 717 719 722 725 730 735 739 742 742 741
746 746 746 747 748 748 749 750 750 749 748 747 746 746 745 745 744 743 741 740 738 737 736 734 731 728 725 722 718 713 709 705 701 696 691 687 682 678 675 672 670 667 664 662 660 659 658 657 657 657 658 659 660 661 662 663 664 665 667 668 670 672 674 676 679 682 685 689 693 697 701 705 709 713 715 718 721 724 727 731 736 740 740 738 736
745 745 746 747 747 748 749 750 749 748 747 747 746 746 746 745 744 742 741 740 738 736 735 733 731 728 725 722 717 713 709 705 701 697 693 688 684 681 678 676 673 671 668 667 665 663 661 660 660 660 660 661 661 662 664 665 666 668 670 672 674 675 677 679 682 685 688 691 696 700 703 707 712 715 718 720 722 725 729 733 737 740 739 735 735
744 745 747 747 748 748 749 750 749 748 748 747 746 746 746 745 743 741 740 739 737 736 734 732 730 729 726 723 719 714 710 706 702 698 695 691 688 685 682 680 677 675 673 671 669 667 665 665 664 663 663 663 664 665 666 668 669 671 673 675 677 679 680 683 686 689 691 695 699 703 706 710 714 717 720 722 724 727 731 736 739 740 738 736 737
745 746 747 747 748 748 749 749 749 749 748 747 747 746 745 744 743 741 740 738 737 735 733 732 730 729 727 725 721 717 713 709 705 702 699 696 692 689 687 684 682 680 678 676 674 672 670 669 667 667 666 666 667 668 669 671 673 674 676 678 680 682 684 687 689 692 695 698 702 705 709 712 715 718 722 725 727 729 733 737 741 741 739 739 741
746 747 747 747 748 748 748 749 750 750 749 748 747 746 745 743 742 741 739 737 736 734 733 731 730 729 728 726 724 720 717 713 710 707 703 700 698 695 692 689 687 684 682 680 678 676 675 673 671 671 670 670 671 672 673 675 677 678 680 682 684 686 688 691 693 696 698 701 704 707 710 714 717 720 723 726 728 731 735 739 742 743 743 743 745
747 747 748 748 748 748 748 748 749 749 749 747 746 745 744 742 741 740 737 736 735 734 732 731 731 729 728 727 725 722 720 716 713 710 707 705 702 700 697 694 691 689 687 685 683 681 680 678 677 676 675 675 676 676 677 679 680 682 684 686 688 690 692 694 697 699 701 704 707 710 713 716 720 723 724 727 730 735 739 742 744 745 747 748 749
747 748 748 748 747 747 748 748 748 748 747 746 745 744 743 741 740 738 736 735 734 733 732 731 731 729 728 727 726 724 722 719 716 713 711 709 706 704 701 699 696 693 691 689 688 686 685 683 682 681 680 680 681 681 682 683 685 686 688 690 692 695 697 698 701 703 705 707 711 714 716 720 724 727 728 731 735 740 743 745 747 749 750 752 753
747 748 748 748 748 748 748 748 748 747 746 745 744 743 742 741 740 738 736 735 734 733 732 731 730 729 728 728 726 725 724 722 719 716 714 712 710 707 705 703 700 698 696 694 693 692 690 689 688 687 686 686 685 686 687 688 689 691 693 695 697 699 701 703 705 707 709 711 714 717 721 725 729 731 734 737 741 744 747 749 750 752 753 754 756
748 748 748 748 748 748 748 748 747 746 746 745 744 743 742 741 740 738 737 735 733 733 732 731 730 729 729 728 727 726 725 724 722 719 717 715 713 712 710 707 705 703 701 699 698 697 696 695 694 693 692 691 691 692 692 693 695 696 698 700 701 703 706 708 709 711 714 716 718 721 725 729 732 735 739 742 744 747 749 752 753 754 755 757 758
748 748 748 748 747 747 747 747 747 746 745 745 744 743 742 741 740 739 738 736 734 734 733 731 730 730 729 728 728 727 726 725 724 722 721 719 717 715 714 712 710 708 706 704 703 702 701 700 699 698 698 698 698 698 699 700 701 702 704 705 706 708 710 712 714 715 718 720 722 726 729 732 735 739 742 744 747 750 752 754 755 756 758 759 761
749 749 749 749 748 747 747 747 746 746 746 745 745 744 743 742 741 740 739 737 736 735 734 732 731 730 730 730 729 728 727 727 726 725 724 722 720 719 717 715 714 713 711 710 709 707 707 706 705 704 704 704 704 705 706 707 708 709 710 711 712 714 715 717 719 721 723 726 728 730 733 736 739 742 745 748 751 754 756 757 758 759 761 762 763
751 751 751 751 750 749 748 747 747 747 747 746 746 745 744 744 743 742 741 739 738 737 735 734 733 732 731 731 730 729 729 728 727 727 726 725 724 722 721 719 718 717 716 715 714 712 712 711 710 710 710 710 710 711 712 713 714 715 716 718 719 720 722 723 725 727 729 731 732 734 737 740 743 747 750 752 755 757 759 760 761 762 763 764 765
754 754 753 753 753 752 751 750 749 749 749 748 748 748 747 746 745 744 742 741 740 739 738 737 735 734 733 733 732 731 730 730 729 728 728 727 727 726 724 723 722 721 720 719 718 717 717 716 716 716 716 716 716 717 718 719 720 721 722 724 725 726 727 728 730 731 733 734 736 739 742 745 748 751 754 756 758 760 761 763 764 765 765 766 767
756 756 756 756 755 755 754 753 752 752 752 751 751 750 749 749 748 747 745 744 743 742 741 740 739 737 736 735 734 733 732 731 731 730 730 729 729 728 727 727 726 725 724 723 723 722 722 721 721 721 721 721 722 722 723 724 726 727 728 729 730 732 733 734 735 736 737 739 742 744 747 750 753 756 758 760 761 762 764 765 766 767 767 768 769
759 758 758 758 758 757 757 756 755 755 755 754 753 753 752 751 751 750 749 747 746 745 745 743 742 741 739 738 737 736 735 734 733 732 732 732 731 731 730 730 729 728 728 727 727 727 726 726 726 726 726 727 727 728 729 730 731 732 733 734 735 736 737 738 740 741 743 745 747 750 752 754 757 759 761 762 763 765 766 767 768 769 769 770 772
Wind_Speed
24 22 22 20 19 19 19 18 17 16 15 15 13 12 11 10 10 9 9 10 10 11 11 12 13 13 13 13 13 13 14 14 16 16 17 17 17 18 17 18 19 19 20 21 21 22 22 22 23 22 23 25 27 29 29 30 31 34 34 33 33 32 31 26 16 13 18 17 15 16 15 17 21 21 21 23 25 25 24 25 29 32 36 38 38
25 24 23 22 21 20 19 19 17 16 15 14 13 12 11 11 10 10 11 11 11 12 12 13 13 13 13 14 14 14 14 15 16 17 18 18 17 18 18 18 19 19 20 21 22 23 23 24 23 23 22 23 24 27 28 29 29 31 32 31 32 33 32 31 24 16 18 20 19 17 16 20 24 23 23 26 28 27 24 24 29 33 37 39 40
26 24 23 22 21 21 20 19 18 16 15 15 13 12 11 11 11 11 11 11 11 12 12 13 13 14 15 15 15 16 16 16 17 17 18 19 18 18 19 19 20 21 21 22 22 23 24 25 25 24 23 24 24 24 26 29 29 29 31 32 32 33 33 34 30 23 20 20 21 19 17 24 30 26 26 29 29 27 25 26 30 33 37 40 40
25 24 23 22 22 21 20 19 18 17 16 14 13 12 12 11 11 11 11 11 12 12 13 13 14 14 15 16 17 18 19 18 18 18 19 20 19 20 20 20 21 22 22 23 23 24 25 26 26 25 25 25 25 24 24 26 29 29 30 32 32 33 34 35 34 30 24 21 22 22 21 27 31 27 27 30 28 27 26 26 29 32 35 37 39
25 23 23 22 22 21 20 18 17 17 16 14 13 12 12 11 11 11 11 12 12 12 13 13 14 15 16 18 18 19 20 20 19 19 20 20 21 22 22 22 22 22 23 24 24 24 25 27 27 27 27 27 26 25 24 25 28 29 31 31 31 34 34 34 34 33 29 24 22 23 24 27 28 25 28 32 27 24 25 25 26 30 32 33 35
25 23 23 22 22 21 19 18 17 16 15 14 13 12 11 11 11 11 11 12 12 12 13 13 15 16 17 18 19 20 20 20 20 20 21 21 22 24 25 24 23 24 24 25 25 25 26 27 28 28 28 28 28 27 26 26 26 28 31 30 29 30 31 31 31 31 31 29 24 23 27 29 27 24 27 32 30 27 26 24 23 26 30 32 33
24 22 23 22 21 20 19 18 16 15 15 14 12 11 11 11 11 10 11 11 11 12 14 15 16 17 18 19 20 20 21 21 21 21 21 21 22 24 25 24 24 24 25 26 26 27 27 28 28 29 29 29 29 29 29 29 28 26 27 30 31 30 28 28 29 29 29 28 25 24 28 30 28 26 27 31 30 28 29 29 24 23 28 32 33
24 22 22 22 20 20 19 17 16 15 14 13 11 11 11 11 10 10 10 11 12 13 14 15 17 17 18 19 20 21 22 23 23 23 22 22 22 23 23 24 24 25 26 27 28 28 28 29 30 30 31 31 30 30 30 30 30 27 25 25 29 30 29 27 28 28 26 25 24 24 28 28 26 25 27 30 28 26 31 33 30 28 29 30 32
23 21 21 21 20 18 17 16 15 13 12 11 10 10 11 10 10 10 10 11 12 13 14 15 17 18 18 19 20 22 23 23 24 23 23 23 23 23 23 23 24 24 25 26 28 29 30 31 31 32 32 33 34 34 33 31 31 31 28 25 23 26 27 27 28 27 25 23 22 22 24 25 25 26 28 31 30 29 32 32 29 30 30 27 28
22 21 20 19 18 16 15 14 13 12 11 10 10 10 10 10 10 10 10 12 12 13 15 16 17 17 18 19 21 22 23 23 24 24 25 26 26 27 27 26 26 26 26 26 27 28 30 31 32 33 34 35 36 37 38 38 36 35 35 34 30 26 23 24 25 26 25 24 22 20 20 23 27 30 30 32 32 31 34 34 29 29 28 23 21
21 20 19 18 17 15 14 13 12 11 10 10 10 10 9 10 10 9 10 12 13 14 16 17 17 18 19 20 21 22 23 23 24 25 27 28 29 30 32 31 30 30 29 30 29 28 28 30 31 32 34 35 36 37 39 41 42 40 39 40 40 37 31 25 23 23 24 24 23 22 22 22 28 33 32 32 32 33 36 36 31 30 29 23 19
20 19 18 18 17 15 14 13 12 11 9 9 9 9 9 9 10 10 12 13 14 14 16 17 19 19 20 21 22 23 24 23 24 26 27 28 29 30 31 32 32 31 31 32 31 31 30 30 30 30 31 32 33 35 36 38 41 42 42 42 45 46 44 38 31 26 24 24 23 24 26 24 26 31 33 33 34 34 35 34 33 34 32 27 24
19 19 18 17 16 15 14 12 10 9 8 8 8 9 9 10 10 11 13 14 14 14 15 17 19 20 20 22 23 24 25 25 25 27 28 29 29 30 31 31 30 31 31 32 32 33 32 31 31 31 31 31 31 33 34 34 36 38 41 43 46 49 51 50 45 38 31 28 26 25 28 31 31 32 36 38 37 36 35 33 34 35 33 31 32
17 18 17 16 15 14 12 11 9 8 7 8 9 10 10 10 11 12 13 13 11 12 14 17 19 21 21 22 23 25 25 26 27 28 30 31 31 32 34 34 33 32 32 32 33 34 34 34 33 33 32 32 32 31 31 32 33 35 37 41 45 49 51 53 53 50 43 36 32 30 30 33 37 37 38 41 42 42 41 38 38 38 36 33 30
17 17 16 14 13 12 10 8 7 7 7 9 10 10 10 11 12 12 12 10 10 12 15 18 20 21 22 23 24 25 26 27 29 30 31 32 32 33 34 36 38 37 35 34 35 35 36 36 36 35 34 33 34 34 33 31 30 31 32 35 40 43 45 47 50 51 49 45 41 38 33 31 35 40 41 43 47 47 45 43 41 38 32 26 23
17 16 15 12 10 9 7 6 6 6 8 9 10 10 10 12 12 12 12 11 12 13 15 18 20 22 23 24 25 25 26 27 29 30 31 32 32 33 34 36 37 37 36 36 36 36 37 37 37 37 35 34 35 38 39 38 36 33 31 30 32 36 38 40 42 44 47 46 45 43 38 34 36 40 42 43 45 43 38 34 33 31 26 21 20
17 17 15 12 9 7 5 5 6 8 8 9 10 10 10 11 12 13 12 11 12 14 16 19 21 23 24 24 24 26 27 27 29 31 33 33 34 35 36 36 36 36 36 36 36 36 36 36 36 37 37 36 35 35 40 44 43 39 34 31 30 30 33 35 36 38 41 43 45 46 43 39 37 37 39 41 43 42 37 30 31 33 28 20 16
17 17 15 12 8 6 5 6 7 7 8 8 8 9 9 11 13 14 12 10 12 15 18 20 22 23 24 25 25 28 29 28 29 31 32 33 34 35 37 37 36 36 36 35 35 35 35 36 36 37 37 36 35 34 37 41 43 40 34 30 30 29 28 27 28 30 33 35 38 41 40 37 36 37 40 44 44 45 42 37 38 38 31 22 19
15 15 15 12 7 4 4 6 6 6 6 7 7 9 10 11 12 12 10 11 14 17 19 21 23 24 26 27 27 28 29 29 29 30 31 33 33 34 37 37 34 34 35 34 35 35 35 36 36 38 39 37 36 36 36 39 42 40 33 28 27 28 27 23 22 23 25 27 29 32 33 33 34 36 42 46 48 48 47 45 45 43 34 28 26
13 15 15 11 7 3 4 5 4 4 6 7 7 9 10 12 12 10 9 12 15 18 20 22 24 25 26 27 27 28 28 29 29 30 32 34 35 35 36 35 33 33 32 32 32 34 34 34 35 36 37 37 38 40 41 42 44 43 37 30 25 23 23 21 21 20 21 24 27 30 32 34 34 35 40 44 46 46 43 40 43 44 37 33 33
17 17 13 10 6 3 3 2 3 4 6 7 9 10 10 12 12 10 11 14 17 19 21 22 23 25 26 27 28 28 29 30 30 31 33 34 36 36 36 36 35 34 32 30 31 32 31 32 33 34 34 36 37 39 42 45 48 49 47 42 35 27 22 17 19 21 21 24 28 29 31 33 33 36 40 43 43 41 37 36 41 42 37 37 37
17 13 10 8 5 2 1 2 4 5 7 8 9 10 10 10 10 11 13 16 18 20 22 22 23 25 26 28 29 29 30 30 31 33 34 34 36 37 37 36 34 33 31 29 29 30 31 31 32 33 33 35 36 38 41 44 47 50 52 51 46 39 30 21 18 22 23 25 28 28 30 32 33 35 38 39 40 38 35 37 40 37 34 36 38
11 9 8 6 4 3 1 3 4 5 7 7 8 10 9 7 9 11 12 15 17 19 21 23 24 25 27 28 29 30 30 30 31 33 34 36 37 37 37 36 34 33 32 31 30 30 31 32 33 34 34 34 36 38 40 43 46 49 51 51 49 45 36 26 21 24 25 26 28 27 27 30 33 35 36 37 37 34 31 34 36 32 29 29 31
8 9 8 6 5 2 1 2 4 4 6 8 9 9 7 6 8 10 10 13 16 18 19 21 23 25 26 28 28 29 30 30 31 33 35 36 37 36 36 37 37 36 36 35 34 33 33 33 33 34 35 35 37 39 41 43 46 48 47 46 46 43 34 27 24 26 26 27 27 26 26 27 29 32 34 35 34 31 29 29 28 27 26 24 23
8 9 8 7 5 1 0 2 4 5 6 7 8 7 5 5 7 7 7 11 16 18 19 21 22 24 25 25 27 29 30 31 32 33 34 35 36 35 35 35 36 38 38 39 38 38 38 38 37 36 36 37 38 40 42 44 46 46 45 43 41 37 32 28 27 26 27 27 27 27 27 26 26 27 29 31 31 30 28 26 24 23 23 22 20
10 8 6 6 5 1 1 3 4 5 4 5 7 7 5 5 7 6 6 10 15 18 20 22 22 23 23 23 26 30 30 30 31 33 33 34 34 34 35 35 37 38 39 40 41 42 44 45 44 41 39 39 40 38 36 37 41 44 44 42 38 33 30 30 29 28 27 27 27 27 27 26 26 27 28 29 29 29 28 27 25 24 24 25 24
10 7 6 6 4 1 1 2 5 5 7 9 10 9 6 5 6 7 7 9 13 17 20 21 21 22 22 24 27 30 30 30 30 31 32 33 34 36 37 37 37 36 36 37 37 39 43 45 45 44 43 41 40 38 35 35 35 37 39 38 35 31 31 33 33 31 30 29 29 29 28 28 28 29 30 30 29 29 29 30 31 29 28 30 30
10 8 7 6 4 3 3 3 5 8 11 11 11 11 8 5 5 5 6 7 11 15 19 21 21 21 23 26 29 31 30 31 32 33 35 37 39 41 41 39 37 34 32 32 33 35 37 38 38 40 40 37 35 34 35 35 33 33 32 31 31 31 32 33 30 29 30 31 32 31 30 30 30 30 30 30 29 30 30 32 34 34 33 33 31
8 8 8 7 5 5 6 6 8 11 12 12 14 14 10 8 5 3 4 7 11 16 19 22 22 23 24 27 30 31 32 35 37 38 40 41 40 39 39 38 37 35 33 32 32 32 29 27 28 30 30 28 26 24 25 24 25 27 27 28 30 31 31 31 29 28 31 33 35 34 33 31 30 30 31 30 29 30 32 34 36 35 34 33 30
8 9 9 6 7 6 6 8 10 12 13 14 15 14 9 4 2 2 4 7 13 18 21 22 23 24 25 29 31 32 34 38 40 40 40 39 37 35 34 32 31 30 30 29 29 26 21 20 21 22 22 22 21 19 17 16 19 22 24 27 30 30 31 31 31 32 33 35 36 36 35 34 32 32 33 32 30 30 32 34 36 36 35 34 31
12 9 7 5 4 2 4 9 10 11 13 14 14 14 10 2 2 3 6 8 15 22 23 22 23 23 25 30 33 34 36 37 38 37 37 36 34 31 29 26 25 23 20 19 19 19 18 17 17 19 21 21 21 20 18 17 18 20 22 23 25 29 31 31 32 34 35 34 34 34 35 35 34 33 34 34 33 32 32 32 32 32 33 33 31
7 6 8 5 0 1 6 10 9 10 11 12 12 14 14 8 3 4 5 6 16 23 23 22 24 25 26 29 32 35 37 36 35 35 34 33 30 27 24 22 21 18 11 8 9 12 14 14 16 19 20 20 20 21 21 20 20 22 23 22 23 26 30 32 35 36 36 35 34 33 33 33 34 33 33 34 35 33 31 30 30 31 31 30 29
7 10 8 6 5 6 8 9 10 10 9 9 11 13 14 11 8 7 6 7 16 22 22 22 25 27 28 29 31 34 35 34 33 33 32 30 27 23 20 17 16 15 11 6 5 4 5 6 10 14 17 19 19 21 22 22 22 23 25 25 25 25 28 32 36 36 36 36 36 35 34 34 34 33 31 32 34 33 31 30 31 31 30 28 26
8 7 6 6 5 6 7 11 14 13 10 10 12 14 14 12 12 11 8 8 14 19 21 22 26 27 28 30 33 34 33 32 31 31 31 29 25 20 16 14 13 13 13 14 13 10 7 5 3 5 9 12 15 17 19 20 22 23 24 25 26 26 27 29 32 33 34 35 35 35 35 35 35 34 32 30 30 30 30 31 31 31 29 27 26
5 4 1 1 3 7 12 15 15 14 14 13 14 15 14 12 14 14 11 7 10 16 19 22 27 28 27 29 33 34 32 31 30 30 29 29 25 21 19 18 18 17 17 17 15 13 12 9 7 5 5 7 10 12 14 16 18 21 23 25 27 29 29 29 29 31 33 34 33 34 34 34 34 34 33 32 30 29 29 30 31 30 29 28 27
2 1 2 1 6 12 15 15 14 15 16 15 13 14 14 12 14 15 13 8 9 13 16 20 26 29 27 28 32 33 30 29 29 28 28 28 26 24 22 19 18 19 20 18 16 14 13 10 8 7 7 8 9 10 12 14 15 18 22 25 27 29 30 30 30 31 32 32 32 33 34 33 32 32 31 31 30 30 30 31 30 30 29 30 31
1 3 1 5 9 12 12 12 14 16 17 13 10 13 15 15 16 16 13 10 10 11 13 17 24 28 28 29 33 33 30 28 27 27 27 27 26 24 23 20 18 18 19 19 17 15 14 11 10 9 9 10 11 12 14 15 16 18 20 22 24 26 27 29 31 31 31 31 32 32 32 31 31 31 30 29 29 29 30 30 29 29 30 33 34
3 2 4 7 9 10 10 11 14 17 16 11 10 12 15 17 17 16 12 13 13 10 10 15 19 23 25 29 33 34 30 26 27 27 27 27 27 25 23 22 20 19 18 18 17 16 15 14 12 12 12 13 14 16 17 18 19 20 21 21 22 24 25 27 28 29 29 30 31 31 31 30 29 28 29 29 29 28 29 28 28 28 31 33 33
10 6 7 9 9 8 9 12 14 16 17 13 11 12 14 16 18 14 11 15 15 11 9 12 14 18 23 28 31 33 30 26 26 27 26 26 27 26 23 22 21 19 18 17 16 16 16 15 15 15 16 16 18 19 19 20 21 21 22 23 24 24 26 27 28 28 28 29 29 30 30 29 28 27 28 28 29 29 28 27 26 26 27 29 30
8 5 7 9 8 6 8 12 14 18 20 15 13 14 15 17 17 13 11 14 14 11 10 11 11 14 21 27 29 31 29 26 25 26 25 25 25 25 24 23 21 19 18 17 16 16 16 17 17 17 18 19 19 20 20 21 22 22 23 24 24 24 25 26 27 27 28 29 29 29 28 28 29 30 29 28 29 29 28 26 25 26 27 29 31
9 8 8 9 7 6 8 10 12 16 18 12 10 12 14 14 15 14 12 11 11 9 10 12 11 12 17 24 28 29 28 26 25 25 25 24 23 23 23 23 21 20 19 18 17 17 18 18 19 20 20 20 21 22 23 23 23 24 24 24 25 26 26 27 27 27 28 29 29 29 29 29 31 31 30 29 29 29 29 27 26 27 29 31 32
7 8 8 8 8 7 6 5 7 12 14 9 7 9 11 9 11 12 11 9 8 8 9 11 12 11 13 19 25 27 26 25 25 24 24 24 23 22 23 23 22 21 21 20 18 18 19 20 21 21 22 23 23 24 25 25 25 26 26 27 27 27 27 27 27 28 29 30 30 31 31 31 31 31 31 31 30 29 28 28 28 29 29 30 31
5 6 7 7 7 6 4 4 7 11 12 11 10 11 11 8 8 11 13 10 7 8 9 10 11 11 12 14 19 24 25 24 24 24 24 24 24 24 24 24 23 23 23 22 21 21 22 23 24 24 25 25 25 26 26 26 27 28 28 28 28 27 27 27 28 29 31 32 31 32 33 33 31 31 31 31 29 28 28 28 28 28 28 28 29
4 5 6 6 6 6 6 7 9 11 12 13 12 10 10 10 10 12 14 11 7 8 9 9 9 10 11 12 14 19 22 23 23 23 23 23 24 25 25 25 24 24 24 23 23 24 24 25 26 27 27 27 28 28 28 28 29 30 29 29 28 27 27 28 29 29 31 33 33 33 33 33 32 31 30 29 29 29 28 27 27 27 26 27 27
6 6 6 5 5 5 6 6 8 10 10 11 12 11 11 12 11 11 14 13 9 9 10 11 10 10 10 11 11 13 17 21 22 23 23 23 22 23 24 24 25 25 25 24 24 25 25 26 27 28 29 30 30 30 30 30 31 31 30 30 31 30 29 30 30 31 32 34 34 34 33 32 31 30 29 29 30 29 27 26 26 26 26 26 26
9 10 10 9 7 5 4 4 6 8 7 9 10 11 10 12 13 13 15 17 15 10 12 13 12 11 10 10 10 10 13 17 20 21 22 22 21 21 22 23 24 24 25 26 25 25 26 28 29 30 31 32 32 33 33 33 33 33 33 34 34 34 33 32 32 33 34 34 34 34 33 31 30 29 28 28 28 27 25 24 25 26 26 25 25
13 13 13 13 12 10 9 8 8 9 8 8 8 11 13 15 17 17 18 20 22 17 11 12 13 12 11 11 11 10 11 13 16 18 19 20 20 20 20 21 22 23 24 25 26 26 27 28 30 31 32 32 33 34 34 34 34 34 34 34 35 34 34 33 33 34 33 33 34 34 32 31 29 28 28 27 26 25 24 24 25 25 25 25 24
14 14 15 16 16 15 14 13 13 15 17 17 16 19 22 22 21 20 20 21 23 24 18 12 13 14 12 11 11 11 11 12 14 15 15 16 19 20 19 19 20 22 23 24 25 26 27 28 29 30 31 32 33 33 33 34 35 35 34 34 33 33 33 33 33 33 32 32 32 32 31 30 29 28 27 26 24 23 24 24 24 24 24 24 24
15 16 16 17 17 17 17 17 17 19 21 21 20 21 23 22 20 21 23 22 22 24 24 19 15 16 15 13 12 11 11 12 13 13 13 13 15 18 19 20 19 20 21 23 24 25 27 27 28 30 30 31 32 33 33 33 34 33 32 32 31 31 31 31 31 30 30 30 30 30 29 29 28 26 25 24 23 23 23 23 22 22 22 23 23
17 18 17 17 18 18 18 19 19 19 20 20 19 20 21 21 20 21 24 24 23 24 24 23 20 18 17 17 15 12 11 12 12 12 12 11 11 13 16 19 19 19 20 21 22 23 25 25 26 28 29 30 31 32 33 32 31 30 29 28 27 27 27 27 27 28 27 27 26 26 26 26 25 24 23 22 22 21 22 22 21 21 22 22 22
18 19 19 19 19 19 19 19 19 19 20 20 20 20 21 21 20 20 22 24 24 23 23 23 23 21 21 21 20 16 13 12 12 13 13 11 9 9 11 14 17 19 19 19 19 20 22 24 25 26 27 28 30 30 28 26 25 24 24 24 24 24 24 24 24 24 23 22 22 22 23 23 24 23 22 21 21 21 21 21 21 21 21 20 19
Wind_Direction
183 185 185 187 188 190 192 192 194 195 196 198 201 205 211 216 223 231 238 245 251 254 259 265 270 273 273 274 274 274 277 279 281 283 284 283 280 278 277 278 278 278 278 277 275 276 280 280 276 267 255 244 237 232 230 228 227 229 231 230 230 231 231 229 235 248 243 238 232 226 222 211 200 195 192 184 182 191 200 201 198 195 193 194 196
182 184 184 187 189 190 191 192 194 195 196 198 202 207 213 220 226 232 239 246 250 255 261 267 272 273 274 275 275 273 274 277 280 282 282 281 280 278 276 274 275 275 276 276 276 276 279 281 281 277 268 259 248 237 231 229 229 230 231 232 232 231 229 228 230 237 240 238 234 232 224 204 195 196 192 184 185 193 197 195 195 194 195 195 194
182 183 183 186 188 188 190 192 193 195 196 200 205 210 215 222 229 234 242 249 253 258 264 270 272 274 276 276 276 276 277 276 278 280 280 278 277 276 274 271 271 272 273 273 273 273 274 276 278 278 276 272 264 251 238 232 232 233 233 233 232 232 229 227 227 228 231 231 226 220 208 195 192 194 195 190 190 193 194 193 193 192 193 193 194
180 181 183 185 186 188 190 192 194 195 198 202 206 213 219 224 231 238 245 253 257 261 266 270 272 273 275 277 278 280 281 280 279 279 278 277 275 273 272 270 269 268 268 269 270 270 271 271 272 273 274 274 271 264 253 241 235 235 236 234 232 232 231 227 225 223 224 226 220 211 197 186 186 188 187 187 189 191 190 187 188 190 191 191 194
178 180 182 183 184 187 191 192 195 196 198 204 208 214 221 226 233 241 248 254 259 264 268 270 273 276 278 281 284 285 285 283 280 278 276 276 276 274 273 270 268 267 266 266 266 266 268 269 268 267 269 271 270 268 264 255 243 237 237 237 232 230 229 225 224 222 220 220 215 207 197 185 182 184 182 179 179 180 181 181 183 187 190 192 195
178 181 180 181 183 186 191 193 196 198 200 205 210 215 221 227 235 243 249 255 259 264 269 273 277 281 284 287 288 287 286 283 279 277 276 275 276 275 273 270 268 266 266 265 264 263 264 265 266 264 264 265 265 264 265 263 255 243 237 237 235 233 229 224 223 224 222 219 210 196 190 187 183 179 179 180 175 169 171 175 182 187 191 195 196
178 181 178 179 182 185 191 193 195 199 202 206 210 215 222 228 236 242 246 254 261 267 274 278 281 284 286 287 287 286 286 283 279 278 276 275 275 273 271 268 267 266 266 265 264 262 261 261 263 263 261 261 261 260 260 262 262 255 244 238 235 234 233 229 228 228 224 219 209 191 184 187 185 178 178 180 177 174 172 170 172 182 191 197 197
176 178 176 178 181 186 191 192 196 199 200 205 209 216 226 230 235 243 248 255 265 272 278 283 285 286 286 286 286 285 284 282 279 277 275 273 272 271 269 267 266 265 265 265 264 263 262 260 259 260 259 259 258 258 257 257 260 262 256 245 237 233 231 228 229 231 227 220 214 198 186 187 185 175 174 175 173 179 181 174 171 178 187 194 197
173 176 176 176 179 185 188 190 194 196 197 205 214 221 229 233 237 246 255 263 271 277 281 286 290 291 290 288 287 286 283 281 279 276 274 273 271 270 270 269 268 267 266 265 264 262 262 261 258 258 258 258 257 256 256 255 257 259 259 255 249 240 233 226 224 226 225 224 223 206 188 186 183 171 170 178 181 183 182 177 176 180 181 184 191
172 175 175 175 176 181 185 186 189 193 199 209 219 226 231 236 243 253 263 271 278 282 285 288 291 292 292 290 288 287 285 282 279 277 276 276 275 272 271 270 270 270 270 270 269 265 263 261 260 259 259 259 258 257 255 254 253 255 257 258 259 256 247 237 229 225 221 220 221 210 194 190 186 178 178 185 187 182 180 180 177 173 172 171 180
173 173 173 173 175 180 184 185 188 195 205 213 221 230 234 240 251 260 268 276 281 285 290 292 292 291 292 292 291 290 287 284 282 281 281 281 280 275 270 267 265 265 266 267 269 269 267 265 263 262 261 260 260 259 258 255 252 251 252 253 254 256 257 254 244 236 229 223 214 204 201 198 189 184 184 185 185 183 182 181 175 169 171 172 174
172 171 170 172 174 180 183 184 190 198 208 218 226 234 239 246 255 262 271 282 287 290 295 296 294 294 294 294 293 291 289 287 285 285 285 286 285 281 274 268 264 263 262 261 263 265 267 267 266 264 262 261 261 260 259 258 255 253 250 248 248 251 254 255 253 248 241 236 224 206 201 202 195 189 186 185 186 186 184 181 179 178 180 183 182
172 168 170 171 172 179 181 183 192 200 210 223 231 237 245 251 258 270 282 290 291 294 298 297 296 296 296 294 292 291 289 288 285 285 286 286 286 287 284 276 269 266 263 260 260 261 262 264 265 263 261 262 263 261 259 258 258 257 253 249 247 248 250 252 255 254 249 244 239 224 209 202 199 196 192 189 186 183 182 183 185 186 188 192 193
170 166 168 169 170 175 176 181 192 205 216 225 233 241 248 255 265 278 287 293 298 302 303 299 296 295 292 290 290 290 289 288 287 287 287 286 283 282 283 281 276 271 268 264 261 261 260 260 262 262 261 261 262 262 261 258 257 257 254 248 245 246 248 249 251 255 254 247 243 241 228 211 202 200 199 195 191 187 185 186 189 191 194 198 198
166 163 166 166 165 168 174 184 193 209 224 230 239 247 250 258 270 280 289 298 307 307 301 297 294 293 292 291 291 290 289 289 289 288 288 288 285 280 278 278 277 273 270 266 263 261 260 259 259 260 260 258 257 258 261 262 261 261 258 249 242 242 246 248 248 250 251 248 244 242 239 227 215 207 202 201 200 195 191 192 193 192 191 189 188
162 158 158 157 158 162 176 192 200 219 234 239 246 251 254 264 277 290 298 303 305 303 300 298 296 294 294 294 293 290 289 289 290 290 290 290 288 283 279 277 276 272 269 267 265 262 259 257 256 257 257 256 255 255 258 263 269 274 274 265 251 242 241 246 248 247 247 248 246 243 241 238 228 213 203 202 201 196 191 191 189 183 175 168 168
158 155 154 156 161 167 183 209 223 236 243 247 256 260 264 279 295 306 312 314 311 307 304 300 299 297 296 296 295 294 293 293 292 292 291 291 289 285 280 276 274 271 269 268 266 263 260 256 255 255 255 254 254 254 255 259 267 275 278 277 270 256 245 244 247 248 246 245 245 245 244 240 232 218 206 203 201 194 185 180 179 177 171 165 163
160 162 161 164 169 171 195 229 239 246 253 261 273 280 286 297 308 315 324 330 321 312 307 303 300 300 299 299 299 297 296 296 295 293 291 291 289 284 279 275 271 269 270 268 265 263 260 258 255 254 253 253 252 253 253 255 262 269 273 275 275 270 258 245 239 240 240 239 239 239 238 234 230 221 210 205 203 197 190 185 182 179 174 172 168
172 163 152 151 151 156 206 238 250 262 271 280 289 296 303 307 310 317 329 329 319 313 310 306 303 303 302 301 300 299 297 296 296 295 294 295 293 287 281 273 266 265 267 266 264 262 260 259 255 252 251 252 252 252 250 252 258 262 267 271 270 270 268 252 236 231 229 224 222 222 220 217 217 214 208 206 206 203 200 196 188 181 176 173 165
152 126 120 121 125 163 224 241 259 273 282 295 301 302 305 305 308 321 334 327 320 314 309 306 304 303 303 302 302 300 298 297 297 297 296 295 294 291 283 272 264 263 264 261 260 260 257 256 254 251 249 249 250 250 250 250 253 256 261 265 262 268 274 256 230 220 215 206 203 204 204 203 204 204 204 204 204 201 201 199 192 185 179 172 168
113 109 114 119 130 184 224 258 293 295 293 296 296 295 298 302 311 330 335 326 320 314 310 308 306 304 302 303 302 300 298 298 298 298 296 293 292 292 286 276 268 264 261 257 256 256 254 253 253 251 250 248 247 249 249 249 250 251 255 257 255 261 276 261 221 205 199 194 192 194 195 193 193 195 196 198 198 197 198 199 196 192 186 179 177
108 115 118 115 130 174 194 267 277 281 280 279 282 286 289 301 322 337 334 326 322 319 317 316 312 307 304 303 302 301 299 298 298 297 296 293 294 293 288 280 272 264 259 255 252 251 251 253 253 251 250 247 244 246 248 248 248 248 250 252 252 254 265 262 221 195 188 184 182 184 186 184 182 184 186 188 192 195 198 198 197 196 194 190 187
121 124 119 123 156 182 206 273 275 277 279 281 287 292 294 310 335 336 328 325 325 321 318 317 314 310 306 303 301 300 299 298 297 298 297 296 295 293 288 283 277 268 261 256 255 254 252 252 252 250 248 245 243 245 247 246 246 246 247 249 249 249 256 256 225 194 182 177 174 174 178 178 177 178 180 183 188 192 194 195 196 195 193 193 192
132 133 147 165 168 165 231 295 304 304 304 303 299 295 297 318 331 328 323 325 323 315 309 310 311 309 305 301 299 300 301 300 299 298 297 296 295 293 289 286 282 276 268 261 257 256 253 251 250 248 245 243 242 244 246 245 246 245 245 247 247 245 247 244 219 191 176 173 172 171 174 178 177 176 177 181 185 187 187 188 189 188 186 185 184
155 157 170 165 146 143 232 18 349 323 313 314 310 304 307 318 323 324 320 316 313 308 307 308 308 307 304 300 300 302 304 303 300 298 297 296 295 294 291 287 283 280 275 267 261 257 254 251 250 248 245 241 241 245 246 246 246 245 244 244 243 240 236 227 207 185 173 172 172 172 174 176 177 175 175 177 178 178 178 176 172 173 175 173 166
166 167 167 144 128 116 74 44 339 305 307 335 340 330 317 319 332 337 326 313 309 308 310 310 307 306 304 302 304 305 306 305 302 300 299 298 296 296 293 289 286 282 278 272 266 261 258 254 250 247 243 240 241 245 249 251 250 247 244 241 237 230 220 209 196 181 173 171 169 168 168 169 171 172 170 170 170 170 171 167 159 157 161 157 147
167 166 154 134 131 123 57 297 285 314 357 0 351 341 326 322 333 331 319 312 311 312 313 311 308 307 305 304 306 306 306 305 304 303 303 301 299 299 298 295 290 284 277 271 266 262 261 257 250 243 240 240 243 247 257 265 260 247 239 235 228 216 205 200 194 184 176 170 164 163 163 163 165 165 163 162 162 161 164 162 152 146 148 146 135
166 162 147 134 118 57 10 313 311 354 6 359 352 351 342 320 311 306 295 300 312 317 318 314 309 306 306 306 307 305 303 303 304 306 307 306 305 305 305 301 295 287 277 269 265 263 261 255 244 237 235 238 244 252 262 265 254 237 227 218 208 199 193 192 189 178 170 165 160 157 157 158 158 157 156 156 153 152 156 156 147 141 142 139 130
160 158 162 155 107 44 359 350 4 6 2 360 359 355 341 318 307 289 279 308 328 331 324 316 311 308 308 310 310 305 302 304 309 312 313 311 310 309 308 306 301 292 281 273 269 265 255 238 226 223 225 231 238 246 252 244 224 211 203 192 184 181 179 178 172 164 161 161 157 154 153 153 152 152 151 148 146 147 151 149 144 141 139 135 129
170 171 171 145 88 46 352 359 13 6 1 1 357 351 344 328 323 337 332 338 347 344 334 324 318 313 311 314 315 312 308 310 315 318 318 316 314 312 311 312 311 302 289 278 268 254 231 211 206 208 210 214 217 220 220 204 184 176 174 172 171 171 170 169 166 162 161 160 156 155 153 151 150 151 150 145 143 145 146 145 144 142 138 135 132
191 176 146 112 98 75 0 9 10 3 1 360 357 357 355 321 232 324 344 357 358 351 341 332 328 323 317 318 321 320 319 320 322 323 323 320 317 316 316 321 325 319 299 275 250 223 200 189 190 194 197 199 199 198 195 183 168 158 157 160 163 164 163 163 162 160 157 155 154 153 153 152 152 152 150 146 144 143 143 142 141 138 136 137 138
184 117 86 70 300 311 16 14 1 358 1 360 0 358 347 330 314 315 314 350 360 353 344 336 336 334 327 324 325 326 327 329 329 329 329 326 321 320 320 325 336 340 319 257 214 195 189 185 183 184 187 191 192 190 185 177 168 159 152 149 152 157 160 161 161 160 157 155 153 152 152 153 153 152 151 147 144 143 143 142 138 135 136 139 142
85 75 63 35 354 351 13 11 353 351 1 5 4 351 336 337 350 329 300 335 351 348 343 340 339 339 335 332 333 333 334 337 337 336 337 335 329 326 326 329 342 356 10 38 77 120 164 183 187 187 187 186 185 183 179 173 167 161 155 151 152 156 159 161 160 159 157 156 154 153 154 154 152 151 150 148 146 146 144 141 138 138 141 144 148
91 79 55 37 10 353 8 7 357 1 16 16 359 339 327 341 353 338 327 347 346 341 343 344 343 344 341 338 340 342 343 343 342 342 346 347 344 342 347 357 3 10 26 39 45 56 75 88 124 171 182 181 178 175 173 169 164 159 155 153 153 153 155 156 155 154 154 154 153 153 154 154 153 151 149 148 147 147 145 143 143 145 148 150 151
137 155 206 317 5 19 16 3 359 12 19 5 345 325 321 346 359 343 335 351 347 337 340 345 348 350 346 343 346 349 349 348 346 348 353 357 359 4 10 16 19 23 32 39 43 51 60 69 83 108 135 154 161 164 165 162 159 155 152 151 151 150 150 151 151 151 151 151 151 152 152 153 154 153 150 149 148 147 146 147 148 150 152 150 144
122 216 221 355 20 23 13 355 353 1 354 342 334 322 323 349 359 341 333 345 345 334 335 343 350 352 349 348 351 354 355 354 352 354 359 3 8 15 15 14 17 24 30 37 46 55 63 70 84 106 122 133 141 150 154 151 149 150 149 148 149 149 150 151 151 150 149 149 149 150 150 151 153 152 150 148 148 147 146 147 149 151 151 144 133
230 283 60 47 17 6 360 350 345 337 327 329 345 344 346 360 356 340 339 347 338 329 333 344 353 355 352 351 356 358 359 358 358 0 5 8 12 17 17 17 21 26 29 34 44 55 63 75 94 113 124 128 131 138 143 142 140 141 142 144 146 147 148 148 149 148 147 146 147 148 148 149 151 152 149 146 144 144 144 146 148 149 144 134 128
37 344 56 41 12 3 359 345 333 326 328 347 4 357 1 4 346 333 347 356 342 333 336 341 353 360 355 353 358 1 0 360 2 5 8 10 12 15 16 18 23 28 31 35 45 56 63 73 90 107 117 123 128 130 130 131 132 133 134 135 138 139 140 141 142 142 142 142 143 145 145 145 147 148 146 143 142 142 143 144 145 142 136 130 126
37 46 51 27 14 15 356 337 333 334 339 352 6 7 5 352 331 326 360 5 350 343 343 338 347 3 3 1 3 5 3 2 4 5 7 10 12 14 17 19 22 28 33 38 46 57 66 74 85 97 106 112 117 120 121 122 125 127 129 129 129 131 133 135 136 137 137 137 139 140 140 140 141 142 141 139 138 138 138 139 139 136 130 125 124
12 20 20 4 5 19 359 349 352 347 340 349 17 17 357 339 333 342 7 6 352 352 359 350 348 4 11 10 10 10 8 5 4 6 9 12 13 15 19 21 23 27 34 39 46 57 67 76 84 93 101 107 110 114 116 118 120 122 125 125 125 126 129 132 133 133 133 134 136 136 135 135 136 136 135 135 134 134 133 132 132 129 124 122 123
355 349 346 338 331 331 335 342 348 339 332 346 24 8 340 340 357 3 357 353 354 2 10 5 355 359 9 12 14 16 15 11 8 10 12 14 17 20 23 25 27 31 35 39 48 59 68 74 81 89 96 102 106 110 112 115 117 117 118 120 119 120 124 126 127 128 129 130 130 130 128 129 131 130 129 127 126 127 128 128 127 125 123 123 124
3 348 338 328 319 318 323 339 343 331 325 335 356 334 318 341 16 5 342 344 5 15 17 17 9 360 1 7 13 18 21 19 16 16 17 19 23 27 30 33 38 42 46 50 58 67 73 75 80 87 92 96 101 105 108 111 113 112 113 115 116 117 118 119 120 123 124 125 125 125 123 123 123 122 120 120 120 123 125 126 126 124 123 125 125
3 355 351 348 351 0 18 19 353 336 324 319 317 309 307 331 14 8 351 355 29 42 32 29 22 9 1 2 10 18 24 26 23 22 23 25 28 32 36 39 43 49 55 60 65 73 79 81 82 85 89 93 97 100 103 107 110 110 110 111 112 113 114 114 116 120 121 122 122 122 121 121 121 120 119 119 121 122 123 123 124 124 124 126 126
13 19 11 6 12 15 9 356 340 323 310 311 317 323 334 354 18 17 3 4 46 68 51 43 39 26 15 8 10 19 28 32 31 29 30 31 32 35 40 43 47 52 59 64 69 76 83 86 85 84 85 88 93 97 100 104 107 108 108 109 108 109 111 112 115 118 121 122 122 122 122 123 124 123 122 122 123 124 123 123 124 124 125 126 125
31 33 29 32 34 22 11 359 335 317 323 344 356 0 7 13 21 21 13 14 40 75 73 60 49 39 31 23 17 23 33 38 37 36 36 37 38 41 45 48 52 56 60 65 71 79 84 87 88 86 85 87 91 94 97 100 103 105 106 106 106 106 107 110 113 115 118 119 120 121 123 124 124 124 123 123 124 124 123 123 124 124 123 123 122
34 30 25 25 26 23 33 28 346 338 10 32 12 354 360 13 18 22 21 17 20 50 84 80 61 48 45 40 30 27 35 41 42 41 40 42 47 51 54 56 57 59 62 67 72 78 84 88 90 90 88 89 91 93 95 97 100 101 102 104 106 106 107 110 111 112 114 116 117 118 119 119 119 120 121 121 121 121 121 123 124 124 122 122 120
34 34 25 19 18 20 24 23 4 359 19 32 9 2 14 20 18 19 20 15 11 17 52 83 77 63 55 50 44 40 39 43 46 46 44 46 51 57 62 66 66 64 66 70 74 78 82 87 91 92 92 92 93 94 95 96 97 98 101 103 105 108 111 114 115 114 114 115 116 117 116 116 116 117 119 120 121 123 124 124 125 124 123 122 121
34 37 30 22 21 20 16 15 16 18 21 22 21 23 25 24 19 16 15 13 10 8 14 47 76 74 64 56 55 52 47 46 50 52 50 49 52 57 64 71 74 72 71 74 78 81 84 88 91 94 95 95 96 96 97 98 98 99 101 103 106 108 112 116 117 118 118 118 118 117 117 117 118 120 123 124 126 126 127 127 126 125 122 119 118
37 38 36 30 27 23 19 19 23 27 26 24 24 24 23 21 19 14 11 11 12 9 9 20 48 67 68 62 57 54 50 47 49 53 52 49 50 55 61 68 75 79 79 79 82 87 90 91 94 96 97 99 100 101 101 101 101 101 102 105 108 110 111 113 115 116 118 120 121 122 122 122 122 123 126 127 127 128 129 129 129 125 122 118 117
36 37 38 36 32 30 28 27 28 29 27 26 26 26 24 21 18 14 13 14 14 11 10 13 22 38 49 50 49 54 59 54 50 51 52 51 51 54 59 66 73 79 83 85 87 91 95 96 96 98 100 101 102 103 102 101 101 101 103 105 108 109 111 113 115 117 119 122 124 125 126 126 126 127 128 128 128 128 128 129 128 126 124 122 118
35 36 36 36 36 35 33 32 31 30 29 29 29 27 25 23 19 16 15 16 14 12 12 14 17 23 31 34 37 44 54 56 53 51 51 53 53 50 55 65 72 78 83 87 90 94 99 101 101 101 103 104 104 104 103 100 99 99 100 103 106 107 108 110 112 114 115 118 121 125 128 129 131 131 130 129 129 129 127 126 125 125 124 122 118